Time,TemperatureF,DewpointF,PressureIn,WindDirection,WindDirectionDegrees,WindSpeedMPH,WindSpeedGustMPH,Humidity,HourlyPrecipIn,Conditions,Clouds,dailyrainin,SoftwareType,DateUTC
2013-08-18 00:03:00,72.2,63.0,30.03,SSW,208,1.0,6.0,73,0.00,,,0.00,weatherlink.com 1.10,2013-08-18 05:03:00,
2013-08-18 00:18:00,71.7,63.0,30.03,SSW,200,2.0,6.0,74,0.00,,,0.00,weatherlink.com 1.10,2013-08-18 05:18:00,
2013-08-18 00:33:00,71.2,63.0,30.03,South,176,2.0,6.0,75,0.00,,,0.00,weatherlink.com 1.10,2013-08-18 05:33:00,
2013-08-18 00:48:00,70.6,63.0,30.03,SSW,205,1.0,4.0,76,0.00,,,0.00,weatherlink.com 1.10,2013-08-18 05:48:00,
2013-08-18 01:03:00,70.2,63.0,30.03,SSE,167,1.0,6.0,77,0.00,,,0.00,weatherlink.com 1.10,2013-08-18 06:03:00,
2013-08-18 01:18:00,69.9,62.0,30.04,SSW,195,0.0,4.0,77,0.00,,,0.00,weatherlink.com 1.10,2013-08-18 06:18:00,
2013-08-18 01:33:00,69.5,62.0,30.04,SSE,160,1.0,3.0,78,0.00,,,0.00,weatherlink.com 1.10,2013-08-18 06:33:00,
2013-08-18 01:48:00,69.1,62.0,30.04,SSW,212,0.0,5.0,78,0.00,,,0.00,weatherlink.com 1.10,2013-08-18 06:48:00,
2013-08-18 02:03:00,68.6,62.0,30.03,South,169,1.0,4.0,79,0.00,,,0.00,weatherlink.com 1.10,2013-08-18 07:03:00,
2013-08-18 02:18:00,68.2,62.0,30.03,ESE,121,1.0,6.0,80,0.00,,,0.00,weatherlink.com 1.10,2013-08-18 07:18:00,
2013-08-18 02:33:00,67.9,62.0,30.03,SW,215,1.0,4.0,80,0.00,,,0.00,weatherlink.com 1.10,2013-08-18 07:33:00,
2013-08-18 02:48:00,67.6,61.0,30.03,SSW,211,1.0,6.0,80,0.00,,,0.00,weatherlink.com 1.10,2013-08-18 07:48:00,
2013-08-18 03:03:00,67.2,61.0,30.03,SW,221,2.0,5.0,81,0.00,,,0.00,weatherlink.com 1.10,2013-08-18 08:03:00,
2013-08-18 03:18:00,66.9,61.0,30.03,SSW,204,2.0,3.0,81,0.00,,,0.00,weatherlink.com 1.10,2013-08-18 08:18:00,
2013-08-18 03:34:00,66.6,61.0,30.02,SW,232,0.0,4.0,81,0.00,,,0.00,weatherlink.com 1.10,2013-08-18 08:34:00,
2013-08-18 03:49:00,66.3,61.0,30.02,South,184,1.0,3.0,82,0.00,,,0.00,weatherlink.com 1.10,2013-08-18 08:49:00,
2013-08-18 04:04:00,66.0,60.0,30.01,SE,145,1.0,4.0,82,0.00,,,0.00,weatherlink.com 1.10,2013-08-18 09:04:00,
2013-08-18 04:19:00,65.8,60.0,30.00,SSW,203,1.0,4.0,82,0.00,,,0.00,weatherlink.com 1.10,2013-08-18 09:19:00,
2013-08-18 04:34:00,65.8,60.0,30.00,South,179,2.0,6.0,82,0.00,,,0.00,weatherlink.com 1.10,2013-08-18 09:34:00,
2013-08-18 04:49:00,65.7,60.0,30.00,South,190,1.0,4.0,82,0.00,,,0.00,weatherlink.com 1.10,2013-08-18 09:49:00,
2013-08-18 05:04:00,65.5,60.0,30.00,SW,218,1.0,4.0,82,0.00,,,0.00,weatherlink.com 1.10,2013-08-18 10:04:00,
2013-08-18 05:19:00,65.3,60.0,29.99,South,169,3.0,5.0,82,0.00,,,0.00,weatherlink.com 1.10,2013-08-18 10:19:00,
2013-08-18 05:34:00,65.0,59.0,30.00,SSW,195,0.0,4.0,82,0.00,,,0.00,weatherlink.com 1.10,2013-08-18 10:34:00,
2013-08-18 05:49:00,64.7,59.0,30.00,SSW,203,0.0,6.0,83,0.00,,,0.00,weatherlink.com 1.10,2013-08-18 10:49:00,
2013-08-18 06:04:00,64.5,59.0,30.00,SSW,205,0.0,4.0,83,0.00,,,0.00,weatherlink.com 1.10,2013-08-18 11:04:00,
2013-08-18 06:19:00,64.2,59.0,30.00,SSW,198,0.0,5.0,83,0.00,,,0.00,weatherlink.com 1.10,2013-08-18 11:19:00,
2013-08-18 06:34:00,64.1,59.0,30.00,SSE,154,1.0,4.0,84,0.00,,,0.00,weatherlink.com 1.10,2013-08-18 11:34:00,
2013-08-18 06:49:00,63.9,59.0,30.00,South,183,2.0,3.0,84,0.00,,,0.00,weatherlink.com 1.10,2013-08-18 11:49:00,
2013-08-18 07:04:00,63.9,59.0,30.00,ESE,121,0.0,3.0,84,0.00,,,0.00,weatherlink.com 1.10,2013-08-18 12:04:00,
2013-08-18 07:19:00,64.0,59.0,30.00,SSE,154,3.0,3.0,84,0.00,,,0.00,weatherlink.com 1.10,2013-08-18 12:19:00,
2013-08-18 07:34:00,64.5,59.0,30.00,SSE,162,1.0,5.0,83,0.00,,,0.00,weatherlink.com 1.10,2013-08-18 12:34:00,
2013-08-18 07:49:00,65.3,59.0,30.00,SSW,203,1.0,3.0,81,0.00,,,0.00,weatherlink.com 1.10,2013-08-18 12:49:00,
2013-08-18 08:04:00,65.8,60.0,30.00,SW,216,1.0,3.0,80,0.00,,,0.00,weatherlink.com 1.10,2013-08-18 13:04:00,
2013-08-18 08:19:00,66.4,60.0,30.00,SSE,152,1.0,5.0,79,0.00,,,0.00,weatherlink.com 1.10,2013-08-18 13:19:00,
2013-08-18 08:34:00,67.3,60.0,30.00,SSE,163,1.0,5.0,77,0.00,,,0.00,weatherlink.com 1.10,2013-08-18 13:34:00,
2013-08-18 08:49:00,67.5,60.0,30.00,South,186,0.0,7.0,77,0.00,,,0.00,weatherlink.com 1.10,2013-08-18 13:49:00,
2013-08-18 09:04:00,68.0,60.0,29.99,WSW,257,0.0,6.0,76,0.00,,,0.00,weatherlink.com 1.10,2013-08-18 14:04:00,
2013-08-18 09:19:00,69.1,61.0,29.99,SSW,193,1.0,6.0,75,0.00,,,0.00,weatherlink.com 1.10,2013-08-18 14:19:00,
2013-08-18 09:34:00,70.0,61.0,29.98,SE,136,0.0,6.0,73,0.00,,,0.00,weatherlink.com 1.10,2013-08-18 14:34:00,
2013-08-18 09:49:00,70.6,62.0,29.98,SSW,198,2.0,6.0,73,0.00,,,0.00,weatherlink.com 1.10,2013-08-18 14:49:00,
2013-08-18 10:04:00,71.3,61.0,29.98,South,174,3.0,7.0,71,0.00,,,0.00,weatherlink.com 1.10,2013-08-18 15:04:00,
2013-08-18 10:19:00,72.0,62.0,29.98,WSW,238,1.0,6.0,70,0.00,,,0.00,weatherlink.com 1.10,2013-08-18 15:19:00,
2013-08-18 10:34:00,73.3,63.0,29.98,SW,226,4.0,6.0,69,0.00,,,0.00,weatherlink.com 1.10,2013-08-18 15:34:00,
2013-08-18 10:49:00,74.2,63.0,29.97,South,188,2.0,8.0,69,0.00,,,0.00,weatherlink.com 1.10,2013-08-18 15:49:00,
2013-08-18 11:04:00,75.1,63.0,29.96,South,187,4.0,11.0,67,0.00,,,0.00,weatherlink.com 1.10,2013-08-18 16:04:00,
2013-08-18 11:19:00,76.8,64.0,29.95,SSW,195,3.0,6.0,65,0.00,,,0.00,weatherlink.com 1.10,2013-08-18 16:19:00,
2013-08-18 11:34:00,77.8,64.0,29.94,SSW,197,1.0,11.0,63,0.00,,,0.00,weatherlink.com 1.10,2013-08-18 16:34:00,
2013-08-18 11:49:00,78.9,65.0,29.94,SW,218,3.0,8.0,62,0.00,,,0.00,weatherlink.com 1.10,2013-08-18 16:49:00,
2013-08-18 12:04:00,78.5,65.0,29.94,SW,219,4.0,10.0,63,0.00,,,0.00,weatherlink.com 1.10,2013-08-18 17:04:00,
2013-08-18 12:19:00,79.3,65.0,29.94,SW,218,4.0,8.0,62,0.00,,,0.00,weatherlink.com 1.10,2013-08-18 17:19:00,
2013-08-18 12:34:00,79.4,64.0,29.95,SSW,195,6.0,9.0,60,0.00,,,0.00,weatherlink.com 1.10,2013-08-18 17:34:00,
2013-08-18 12:49:00,79.2,65.0,29.95,WSW,238,4.0,11.0,62,0.00,,,0.00,weatherlink.com 1.10,2013-08-18 17:49:00,
2013-08-18 13:04:00,80.3,66.0,29.95,SSW,201,1.0,7.0,61,0.00,,,0.00,weatherlink.com 1.10,2013-08-18 18:04:00,
2013-08-18 13:19:00,80.6,65.0,29.96,SW,219,4.0,7.0,60,0.00,,,0.00,weatherlink.com 1.10,2013-08-18 18:19:00,
2013-08-18 13:34:00,80.8,66.0,29.96,SE,135,2.0,6.0,62,0.00,,,0.00,weatherlink.com 1.10,2013-08-18 18:34:00,
2013-08-18 13:50:00,81.6,66.0,29.96,SSW,193,2.0,8.0,60,0.00,,,0.00,weatherlink.com 1.10,2013-08-18 18:50:00,
2013-08-18 14:05:00,82.8,66.0,29.95,SSW,207,3.0,9.0,58,0.00,,,0.00,weatherlink.com 1.10,2013-08-18 19:05:00,
2013-08-18 14:20:00,82.9,67.0,29.95,ENE,68,2.0,5.0,59,0.00,,,0.00,weatherlink.com 1.10,2013-08-18 19:20:00,
2013-08-18 14:35:00,83.6,67.0,29.94,SW,219,2.0,8.0,58,0.00,,,0.00,weatherlink.com 1.10,2013-08-18 19:35:00,
2013-08-18 14:50:00,83.7,67.0,29.94,SW,218,3.0,6.0,57,0.00,,,0.00,weatherlink.com 1.10,2013-08-18 19:50:00,
2013-08-18 15:05:00,83.4,67.0,29.95,SSW,201,4.0,7.0,59,0.00,,,0.00,weatherlink.com 1.10,2013-08-18 20:05:00,
2013-08-18 15:20:00,83.7,68.0,29.95,SW,215,4.0,7.0,59,0.00,,,0.00,weatherlink.com 1.10,2013-08-18 20:20:00,
2013-08-18 15:35:00,83.5,67.0,29.94,SSW,193,3.0,7.0,58,0.00,,,0.00,weatherlink.com 1.10,2013-08-18 20:35:00,
2013-08-18 15:50:00,83.0,67.0,29.94,WSW,242,5.0,8.0,58,0.00,,,0.00,weatherlink.com 1.10,2013-08-18 20:50:00,
2013-08-18 16:05:00,82.7,67.0,29.93,SSW,193,3.0,8.0,59,0.00,,,0.00,weatherlink.com 1.10,2013-08-18 21:05:00,
2013-08-18 16:20:00,82.7,67.0,29.93,South,172,4.0,8.0,59,0.00,,,0.00,weatherlink.com 1.10,2013-08-18 21:20:00,
2013-08-18 16:35:00,83.4,67.0,29.93,SW,226,4.0,6.0,59,0.00,,,0.00,weatherlink.com 1.10,2013-08-18 21:35:00,
2013-08-18 16:50:00,82.9,67.0,29.92,SSW,210,2.0,9.0,59,0.00,,,0.00,weatherlink.com 1.10,2013-08-18 21:50:00,
2013-08-18 17:05:00,82.6,67.0,29.92,WSW,238,5.0,10.0,59,0.00,,,0.00,weatherlink.com 1.10,2013-08-18 22:05:00,
2013-08-18 17:20:00,81.8,66.0,29.92,SSW,207,4.0,10.0,60,0.00,,,0.00,weatherlink.com 1.10,2013-08-18 22:20:00,
2013-08-18 17:36:00,81.5,67.0,29.92,SW,219,3.0,7.0,62,0.00,,,0.00,weatherlink.com 1.10,2013-08-18 22:36:00,
2013-08-18 17:50:00,81.7,67.0,29.91,WSW,254,4.0,7.0,62,0.00,,,0.00,weatherlink.com 1.10,2013-08-18 22:50:00,
2013-08-18 18:05:00,81.2,67.0,29.92,West,270,1.0,6.0,63,0.00,,,0.00,weatherlink.com 1.10,2013-08-18 23:05:00,
2013-08-18 18:20:00,81.0,68.0,29.91,SSW,212,2.0,7.0,64,0.00,,,0.00,weatherlink.com 1.10,2013-08-18 23:20:00,
2013-08-18 18:35:00,80.6,68.0,29.91,SW,229,1.0,4.0,65,0.00,,,0.00,weatherlink.com 1.10,2013-08-18 23:35:00,
2013-08-18 18:50:00,80.2,68.0,29.91,SW,218,3.0,5.0,66,0.00,,,0.00,weatherlink.com 1.10,2013-08-18 23:50:00,
2013-08-18 19:05:00,79.8,67.0,29.91,SW,214,2.0,5.0,66,0.00,,,0.00,weatherlink.com 1.10,2013-08-19 00:05:00,
2013-08-18 19:20:00,79.4,67.0,29.90,SW,224,2.0,4.0,67,0.00,,,0.00,weatherlink.com 1.10,2013-08-19 00:20:00,
2013-08-18 19:35:00,79.0,68.0,29.90,SSW,200,2.0,3.0,69,0.00,,,0.00,weatherlink.com 1.10,2013-08-19 00:35:00,
2013-08-18 19:50:00,78.8,68.0,29.89,WSW,240,2.0,5.0,69,0.00,,,0.00,weatherlink.com 1.10,2013-08-19 00:50:00,
2013-08-18 20:05:00,78.5,68.0,29.89,SW,232,1.0,2.0,70,0.00,,,0.00,weatherlink.com 1.10,2013-08-19 01:05:00,
2013-08-18 20:20:00,78.0,67.0,29.89,SW,215,1.0,3.0,70,0.00,,,0.00,weatherlink.com 1.10,2013-08-19 01:20:00,
2013-08-18 20:35:00,77.3,68.0,29.90,SSW,212,2.0,3.0,72,0.00,,,0.00,weatherlink.com 1.10,2013-08-19 01:35:00,
2013-08-18 20:50:00,76.6,67.0,29.90,SSW,197,1.0,2.0,73,0.00,,,0.00,weatherlink.com 1.10,2013-08-19 01:50:00,
2013-08-18 21:05:00,75.9,67.0,29.91,SSW,203,1.0,2.0,75,0.00,,,0.00,weatherlink.com 1.10,2013-08-19 02:05:00,
2013-08-18 21:20:00,75.5,67.0,29.92,SSW,210,0.0,1.0,75,0.00,,,0.00,weatherlink.com 1.10,2013-08-19 02:20:00,
2013-08-18 21:35:00,75.2,67.0,29.93,SSW,206,0.0,1.0,76,0.00,,,0.00,weatherlink.com 1.10,2013-08-19 02:35:00,
2013-08-18 21:50:00,74.9,67.0,29.93,SW,221,0.0,1.0,77,0.00,,,0.00,weatherlink.com 1.10,2013-08-19 02:50:00,
2013-08-18 22:05:00,74.7,67.0,29.93,SSW,204,0.0,1.0,78,0.00,,,0.00,weatherlink.com 1.10,2013-08-19 03:05:00,
2013-08-18 22:20:00,74.6,67.0,29.93,SSW,209,0.0,1.0,78,0.00,,,0.00,weatherlink.com 1.10,2013-08-19 03:20:00,
2013-08-18 22:35:00,74.7,67.0,29.93,SW,214,0.0,1.0,78,0.00,,,0.00,weatherlink.com 1.10,2013-08-19 03:35:00,
2013-08-18 22:50:00,74.7,67.0,29.93,SSE,167,0.0,1.0,78,0.00,,,0.00,weatherlink.com 1.10,2013-08-19 03:50:00,
2013-08-18 23:05:00,74.4,68.0,29.94,SSE,150,0.0,1.0,79,0.00,,,0.00,weatherlink.com 1.10,2013-08-19 04:05:00,
2013-08-18 23:20:00,74.3,67.0,29.95,South,173,0.0,2.0,79,0.00,,,0.00,weatherlink.com 1.10,2013-08-19 04:20:00,
2013-08-18 23:35:00,74.2,67.0,29.94,South,178,0.0,1.0,79,0.00,,,0.00,weatherlink.com 1.10,2013-08-19 04:35:00,
2013-08-18 23:50:00,73.9,67.0,29.94,South,176,0.0,3.0,80,0.00,,,0.00,weatherlink.com 1.10,2013-08-19 04:50:00,